FENGYUN 1C DEB, 43213

Orbit data source: Space-Track

FENGYUN 1C DEB, 43213 is space debris in SSO originally from a launch on Mon, 10 May 1999 UTC launched from the Taiyaun Space Center, China (TSC). Fengyun 1C debris stems from the Chinese weather satellite Fengyun-1C, which was intentionally destroyed by a Chinese anti-satellite missile in 2007. This event dramatically increased the amount of space debris, with thousands of trackable fragments posing hazards to satellites and human spaceflight. The Fengyun 1C debris cloud has become a focal point in discussions about space sustainability and the need for international regulations to prevent the creation of new debris.

Loading next visibility...
Identifier
43213, 1999-025EYM
Orbit
SSO
Country
Flag of CNCN / PRC
Related business
Manufacturer
Unknown
Mission
Spacecraft
Bus & Motor
Unknown
Mass
Unknown
Launch date (UTC)
1999-05-10 (27 years ago)
Launch vehicle
Unknown
Launch site
Taiyaun Space Center, China (TSC)
Object type
Payload
Rocket body
Debris
Shape & HBR
Unknown shape, 0.1 m
Radar Cross Section
Small (<0.1 m²)

Expand to show TLE details & history
Last TLE update: 1 week ago

TLE from 1 week ago
0 FENGYUN 1C DEB
1 43213U 99025EYM 26154.99031241  .00003085  00000-0  13163-2 0  9997
2 43213  98.7192 223.2468 0055298  87.6273 273.1236 14.24963283428392
Epoch: 2026-06-03T23:46Z
TLE epoch observation values (Epoch: 2026-06-03T23:46:02.992Z)
Latitude
-0°
Longitude
-25.70667°
Altitude
809.591 km
Speed
7.45 km/s
True Right ascension
14h 52m 59s
True Declination
0° 00' 00"
Sunlit
Object was in full shadow at epoch
Visualization orbit readout
Latitude
Unknown
Longitude
Unknown
Altitude
Unknown
Speed
Unknown
Apparent Right ascension
Unknown
Apparent Declination
Unknown
Sunlit
N/A
Visualization observer readout
Local Sidereal Time
23:02:13
Azimuth
Unknown
Elevation
Unknown
Doppler factor
Unknown
Orbital elements
Apogee altitude
845.494 km
Perigee altitude
766.043 km
Semi-major axis
7,183.905 km
Eccentricity
0.00553
Inclination
98.7192°
RAAN
223.2468°
Arg. of periapsis
87.6273°
True anomaly
272.49065°
Mean anomaly
273.1236°
Eccentric anomaly
272.80715°
Mean motion
3.56453 °/min
Orbital period
101 mins
BSTAR
0.0013163
Loading maneuver chart data...
Computing Atmospheric mass density...
Loading historical data...
Loading historical data...
Loading historical data...
Loading historical data...
Loading historical data...
Loading historical data...
Loading historical data...

Documentation

Showing up to 5 results
|